Starlink 4196

operational
NORAD ID: 52859 Int'l Des: 2022-062 Owner: SPXS Country: US Constellation: starlink
LEOCIRCULAR

About Starlink 4196

Description loading...

Live Position

Loading 3D Globe...

Upcoming Passes

Altitude History

Altitude vs Time

uPlot chart will show altitude changes over time

Two-Line Element Set

1 52859U 22062AF 25338.62291921 .00001905 00000-0 13775-3 0 9995
2 52859 53.2185 90.8934 0001284 92.5092 267.6047 15.08844982191574
Epoch: Dec 4, 2025 • Age: 12 hours

Current Status

Altitude 540.2 km
Velocity 7.60 km/s
Sub-Earth Point 24.87°N, 133.37°E
Launch Date Jun 17, 2022
Age 3.4 years
Type internet

Technical Details

Classification Payload
Mass 297.00 kg
Dry Mass 275.00 kg
Total Mass 297.00 kg
Length 0.20 m
Diameter 2.80 m
Span 9.00 m
Shape Box + pan
Manufacturer SPXS
Bus Type Starlink
Phase Status In Orbit
Owner/State SPXS/US

Large Constellations

Loading constellations...